Time,TemperatureF,DewpointF,PressureIn,WindDirection,WindDirectionDegrees,WindSpeedMPH,WindSpeedGustMPH,Humidity,HourlyPrecipIn,Conditions,Clouds,dailyrainin,SoftwareType,DateUTC
2013-02-23 00:03:00,37.2,19.4,29.45,ENE,68,0.0,0.0,48,0.00,,,0.00,meteohub,2013-02-23 06:03:00,
2013-02-23 00:08:00,37.0,19.6,29.45,ENE,68,0.0,0.0,49,0.00,,,0.00,meteohub,2013-02-23 06:08:00,
2013-02-23 00:13:00,36.9,19.4,29.45,ENE,68,0.0,0.0,49,0.00,,,0.00,meteohub,2013-02-23 06:13:00,
2013-02-23 00:18:00,36.7,19.4,29.45,ENE,68,0.0,0.0,49,0.00,,,0.00,meteohub,2013-02-23 06:18:00,
2013-02-23 00:24:00,36.5,19.2,29.45,ENE,68,0.0,0.0,49,0.00,,,0.00,meteohub,2013-02-23 06:24:00,
2013-02-23 00:29:00,36.5,19.6,29.45,ENE,68,0.0,0.0,50,0.00,,,0.00,meteohub,2013-02-23 06:29:00,
2013-02-23 00:34:00,36.5,19.6,29.45,ENE,68,0.0,0.0,50,0.00,,,0.00,meteohub,2013-02-23 06:34:00,
2013-02-23 00:39:00,36.5,19.6,29.45,ENE,68,0.0,0.0,50,0.00,,,0.00,meteohub,2013-02-23 06:39:00,
2013-02-23 00:44:00,36.5,19.6,29.45,ENE,68,0.0,0.0,50,0.00,,,0.00,meteohub,2013-02-23 06:44:00,
2013-02-23 00:50:00,36.5,19.6,29.45,ENE,68,0.0,0.0,50,0.00,,,0.00,meteohub,2013-02-23 06:50:00,
2013-02-23 00:55:00,36.5,19.6,29.45,ENE,68,0.0,0.0,50,0.00,,,0.00,meteohub,2013-02-23 06:55:00,
2013-02-23 01:00:00,36.3,19.4,29.42,NE,35,0.0,0.0,50,0.00,,,0.00,meteohub,2013-02-23 07:00:00,
2013-02-23 01:05:00,36.5,19.6,29.42,NE,35,0.0,3.0,50,0.00,,,0.00,meteohub,2013-02-23 07:05:00,
2013-02-23 01:10:00,36.5,19.6,29.42,NNE,12,0.0,3.0,50,0.00,,,0.00,meteohub,2013-02-23 07:10:00,
2013-02-23 01:15:00,36.5,19.2,29.42,ESE,105,0.0,0.0,49,0.00,,,0.00,meteohub,2013-02-23 07:15:00,
2013-02-23 01:20:00,36.7,19.4,29.42,NE,51,0.0,0.0,49,0.00,,,0.00,meteohub,2013-02-23 07:20:00,
2013-02-23 01:25:00,36.7,19.4,29.42,North,353,0.0,0.0,49,0.00,,,0.00,meteohub,2013-02-23 07:25:00,
2013-02-23 01:30:00,36.7,19.4,29.45,North,353,0.0,0.0,49,0.00,,,0.00,meteohub,2013-02-23 07:30:00,
2013-02-23 01:35:00,36.7,18.9,29.45,North,353,0.0,0.0,48,0.00,,,0.00,meteohub,2013-02-23 07:35:00,
2013-02-23 01:40:00,36.7,18.9,29.45,North,353,0.0,0.0,48,0.00,,,0.00,meteohub,2013-02-23 07:40:00,
2013-02-23 01:45:00,36.7,18.9,29.42,NNW,327,0.0,0.0,48,0.00,,,0.00,meteohub,2013-02-23 07:45:00,
2013-02-23 01:50:00,36.5,18.7,29.42,NNW,348,0.0,0.0,48,0.00,,,0.00,meteohub,2013-02-23 07:50:00,
2013-02-23 01:55:00,36.5,18.7,29.42,NNW,348,0.0,0.0,48,0.00,,,0.00,meteohub,2013-02-23 07:55:00,
2013-02-23 02:00:00,36.3,18.5,29.42,NNW,348,0.0,0.0,48,0.00,,,0.00,meteohub,2013-02-23 08:00:00,
2013-02-23 02:05:00,36.1,18.3,29.42,NNW,348,0.0,0.0,48,0.00,,,0.00,meteohub,2013-02-23 08:05:00,
2013-02-23 02:10:00,36.0,18.1,29.42,NNW,348,0.0,0.0,48,0.00,,,0.00,meteohub,2013-02-23 08:10:00,
2013-02-23 02:16:00,35.8,18.0,29.42,NNW,348,0.0,0.0,48,0.00,,,0.00,meteohub,2013-02-23 08:16:00,
2013-02-23 02:21:00,35.8,18.0,29.42,NNW,348,0.0,0.0,48,0.00,,,0.00,meteohub,2013-02-23 08:21:00,
2013-02-23 02:26:00,35.6,17.8,29.42,NNW,348,0.0,0.0,48,0.00,,,0.00,meteohub,2013-02-23 08:26:00,
2013-02-23 02:31:00,35.6,17.8,29.42,NE,55,0.0,4.0,48,0.00,,,0.00,meteohub,2013-02-23 08:31:00,
2013-02-23 02:36:00,35.4,17.6,29.42,North,353,0.0,4.0,48,0.00,,,0.00,meteohub,2013-02-23 08:36:00,
2013-02-23 02:41:00,35.6,17.8,29.42,North,353,0.0,4.0,48,0.00,,,0.00,meteohub,2013-02-23 08:41:00,
2013-02-23 02:46:00,35.6,17.8,29.42,ENE,58,0.0,2.0,48,0.00,,,0.00,meteohub,2013-02-23 08:46:00,
2013-02-23 02:51:00,35.8,17.6,29.42,NNW,345,0.0,0.0,47,0.00,,,0.00,meteohub,2013-02-23 08:51:00,
2013-02-23 02:56:00,35.8,17.6,29.42,North,2,0.0,4.0,47,0.00,,,0.00,meteohub,2013-02-23 08:56:00,
2013-02-23 03:01:00,35.8,17.1,29.42,ENE,69,0.0,4.0,46,0.00,,,0.00,meteohub,2013-02-23 09:01:00,
2013-02-23 03:06:00,35.8,17.1,29.42,NE,43,3.0,3.0,46,0.00,,,0.00,meteohub,2013-02-23 09:06:00,
2013-02-23 03:11:00,35.8,17.1,29.42,ENE,60,2.0,3.0,46,0.00,,,0.00,meteohub,2013-02-23 09:11:00,
2013-02-23 03:16:00,36.0,17.2,29.42,East,101,3.0,3.0,46,0.00,,,0.00,meteohub,2013-02-23 09:16:00,
2013-02-23 03:21:00,36.0,17.2,29.42,ENE,72,2.0,4.0,46,0.00,,,0.00,meteohub,2013-02-23 09:21:00,
2013-02-23 03:27:00,36.1,17.4,29.42,ENE,57,3.0,4.0,46,0.00,,,0.00,meteohub,2013-02-23 09:27:00,
2013-02-23 03:32:00,36.1,16.9,29.39,ENE,70,2.0,4.0,45,0.00,,,0.00,meteohub,2013-02-23 09:32:00,
2013-02-23 03:37:00,36.1,16.9,29.39,NE,53,0.0,4.0,45,0.00,,,0.00,meteohub,2013-02-23 09:37:00,
2013-02-23 03:42:00,36.1,16.9,29.39,NE,43,3.0,5.0,45,0.00,,,0.00,meteohub,2013-02-23 09:42:00,
2013-02-23 03:47:00,36.1,16.9,29.39,East,89,3.0,5.0,45,0.00,,,0.00,meteohub,2013-02-23 09:47:00,
2013-02-23 03:52:00,36.1,16.9,29.39,ENE,62,4.0,4.0,45,0.00,,,0.00,meteohub,2013-02-23 09:52:00,
2013-02-23 03:57:00,36.0,16.7,29.39,ENE,62,0.0,4.0,45,0.00,,,0.00,meteohub,2013-02-23 09:57:00,
2013-02-23 04:02:00,35.8,16.5,29.39,ENE,66,3.0,4.0,45,0.00,,,0.00,meteohub,2013-02-23 10:02:00,
2013-02-23 04:07:00,35.8,17.1,29.39,East,85,2.0,5.0,46,0.00,,,0.00,meteohub,2013-02-23 10:07:00,
2013-02-23 04:12:00,35.8,17.1,29.39,NNE,19,0.0,5.0,46,0.00,,,0.00,meteohub,2013-02-23 10:12:00,
2013-02-23 04:17:00,35.6,17.4,29.39,ENE,65,3.0,6.0,47,0.00,,,0.00,meteohub,2013-02-23 10:17:00,
2013-02-23 04:22:00,35.6,17.4,29.39,ENE,70,3.0,6.0,47,0.00,,,0.00,meteohub,2013-02-23 10:22:00,
2013-02-23 04:27:00,35.4,17.2,29.39,ENE,67,3.0,6.0,47,0.00,,,0.00,meteohub,2013-02-23 10:27:00,
2013-02-23 04:32:00,35.4,17.6,29.39,NE,43,0.0,4.0,48,0.00,,,0.00,meteohub,2013-02-23 10:32:00,
2013-02-23 04:37:00,35.2,17.6,29.39,NNW,335,0.0,4.0,48,0.00,,,0.00,meteohub,2013-02-23 10:37:00,
2013-02-23 04:42:00,35.1,17.4,29.39,NNW,348,0.0,4.0,48,0.00,,,0.00,meteohub,2013-02-23 10:42:00,
2013-02-23 04:48:00,35.1,17.4,29.39,NNW,345,0.0,4.0,48,0.00,,,0.00,meteohub,2013-02-23 10:48:00,
2013-02-23 04:53:00,34.9,17.6,29.39,NNW,346,0.0,4.0,49,0.00,,,0.00,meteohub,2013-02-23 10:53:00,
2013-02-23 04:58:00,34.9,17.6,29.39,NNE,29,0.0,4.0,49,0.00,,,0.00,meteohub,2013-02-23 10:58:00,
2013-02-23 05:03:00,34.7,17.4,29.39,NNW,338,0.0,4.0,49,0.00,,,0.00,meteohub,2013-02-23 11:03:00,
2013-02-23 05:08:00,34.7,17.4,29.39,NNE,31,0.0,4.0,49,0.00,,,0.00,meteohub,2013-02-23 11:08:00,
2013-02-23 05:13:00,34.5,17.2,29.39,NE,48,3.0,5.0,49,0.00,,,0.00,meteohub,2013-02-23 11:13:00,
2013-02-23 05:18:00,34.5,17.2,29.39,NE,51,0.0,5.0,49,0.00,,,0.00,meteohub,2013-02-23 11:18:00,
2013-02-23 05:23:00,34.5,17.2,29.39,North,353,0.0,5.0,49,0.00,,,0.00,meteohub,2013-02-23 11:23:00,
2013-02-23 05:28:00,34.3,17.2,29.39,ENE,63,0.0,4.0,49,0.00,,,0.00,meteohub,2013-02-23 11:28:00,
2013-02-23 05:33:00,34.3,17.2,29.39,East,80,0.0,4.0,49,0.00,,,0.00,meteohub,2013-02-23 11:33:00,
2013-02-23 05:38:00,34.2,17.1,29.39,ENE,66,0.0,4.0,49,0.00,,,0.00,meteohub,2013-02-23 11:38:00,
2013-02-23 05:43:00,34.0,16.9,29.42,NE,48,0.0,4.0,49,0.00,,,0.00,meteohub,2013-02-23 11:43:00,
2013-02-23 05:48:00,34.0,16.9,29.42,NNW,337,0.0,4.0,49,0.00,,,0.00,meteohub,2013-02-23 11:48:00,
2013-02-23 05:53:00,33.8,16.7,29.42,NNW,337,0.0,0.0,49,0.00,,,0.00,meteohub,2013-02-23 11:53:00,
2013-02-23 05:58:00,33.8,16.7,29.42,NNW,337,0.0,0.0,49,0.00,,,0.00,meteohub,2013-02-23 11:58:00,
2013-02-23 06:03:00,33.6,16.9,29.42,NNW,337,0.0,0.0,50,0.00,,,0.00,meteohub,2013-02-23 12:03:00,
2013-02-23 06:09:00,33.4,16.9,29.42,NNW,337,0.0,0.0,50,0.00,,,0.00,meteohub,2013-02-23 12:09:00,
2013-02-23 06:14:00,33.3,16.7,29.42,NNW,337,0.0,0.0,50,0.00,,,0.00,meteohub,2013-02-23 12:14:00,
2013-02-23 06:19:00,33.1,16.5,29.42,NNW,337,0.0,0.0,50,0.00,,,0.00,meteohub,2013-02-23 12:19:00,
2013-02-23 06:24:00,32.9,16.3,29.42,NNW,337,0.0,0.0,50,0.00,,,0.00,meteohub,2013-02-23 12:24:00,
2013-02-23 06:29:00,32.7,16.2,29.42,NNW,337,0.0,0.0,50,0.00,,,0.00,meteohub,2013-02-23 12:29:00,
2013-02-23 06:34:00,32.7,16.5,29.42,NNW,337,0.0,0.0,51,0.00,,,0.00,meteohub,2013-02-23 12:34:00,
2013-02-23 06:39:00,32.5,16.3,29.42,NNW,337,0.0,0.0,51,0.00,,,0.00,meteohub,2013-02-23 12:39:00,
2013-02-23 06:44:00,32.4,16.3,29.42,NNW,337,0.0,0.0,51,0.00,,,0.00,meteohub,2013-02-23 12:44:00,
2013-02-23 06:49:00,32.4,16.3,29.42,NNW,337,0.0,0.0,51,0.00,,,0.00,meteohub,2013-02-23 12:49:00,
2013-02-23 06:54:00,32.2,16.5,29.42,NNW,337,0.0,0.0,52,0.00,,,0.00,meteohub,2013-02-23 12:54:00,
2013-02-23 06:59:00,32.0,16.3,29.42,NNW,337,0.0,0.0,52,0.00,,,0.00,meteohub,2013-02-23 12:59:00,
2013-02-23 07:04:00,31.8,16.2,29.42,NNW,337,0.0,0.0,52,0.00,,,0.00,meteohub,2013-02-23 13:04:00,
2013-02-23 07:09:00,31.8,16.2,29.42,NNW,337,0.0,0.0,52,0.00,,,0.00,meteohub,2013-02-23 13:09:00,
2013-02-23 07:14:00,31.8,16.7,29.42,NNW,337,0.0,0.0,53,0.00,,,0.00,meteohub,2013-02-23 13:14:00,
2013-02-23 07:19:00,31.8,16.7,29.42,NNW,337,0.0,0.0,53,0.00,,,0.00,meteohub,2013-02-23 13:19:00,
2013-02-23 07:25:00,31.8,16.7,29.42,NNW,337,0.0,0.0,53,0.00,,,0.00,meteohub,2013-02-23 13:25:00,
2013-02-23 07:30:00,31.8,16.7,29.42,NNW,337,0.0,0.0,53,0.00,,,0.00,meteohub,2013-02-23 13:30:00,
2013-02-23 07:35:00,31.8,17.1,29.42,NNW,337,0.0,0.0,54,0.00,,,0.00,meteohub,2013-02-23 13:35:00,
2013-02-23 07:40:00,32.0,17.2,29.42,NNW,337,0.0,0.0,54,0.00,,,0.00,meteohub,2013-02-23 13:40:00,
2013-02-23 07:45:00,32.4,17.6,29.42,ENE,58,0.0,0.0,54,0.00,,,0.00,meteohub,2013-02-23 13:45:00,
2013-02-23 07:50:00,32.7,18.0,29.42,East,79,0.0,3.0,54,0.00,,,0.00,meteohub,2013-02-23 13:50:00,
2013-02-23 07:55:00,33.1,18.7,29.42,NNE,16,0.0,3.0,55,0.00,,,0.00,meteohub,2013-02-23 13:55:00,
2013-02-23 08:00:00,33.4,18.5,29.42,ENE,62,2.0,3.0,54,0.00,,,0.00,meteohub,2013-02-23 14:00:00,
2013-02-23 08:05:00,34.0,18.7,29.42,North,350,0.0,4.0,53,0.00,,,0.00,meteohub,2013-02-23 14:05:00,
2013-02-23 08:10:00,34.5,19.2,29.42,East,97,0.0,4.0,53,0.00,,,0.00,meteohub,2013-02-23 14:10:00,
2013-02-23 08:15:00,35.4,19.6,29.42,NE,39,0.0,4.0,52,0.00,,,0.00,meteohub,2013-02-23 14:15:00,
2013-02-23 08:20:00,36.0,18.7,29.42,ENE,76,0.0,4.0,49,0.00,,,0.00,meteohub,2013-02-23 14:20:00,
2013-02-23 08:25:00,36.3,18.0,29.42,ESE,104,0.0,4.0,47,0.00,,,0.00,meteohub,2013-02-23 14:25:00,
2013-02-23 08:30:00,36.9,18.0,29.45,SE,141,0.0,2.0,46,0.00,,,0.00,meteohub,2013-02-23 14:30:00,
2013-02-23 08:36:00,37.0,17.1,29.45,ENE,57,2.0,0.0,44,0.00,,,0.00,meteohub,2013-02-23 14:36:00,
2013-02-23 08:41:00,37.0,16.7,29.45,SW,217,0.0,3.0,43,0.00,,,0.00,meteohub,2013-02-23 14:41:00,
2013-02-23 08:46:00,37.4,16.3,29.45,NE,52,2.0,3.0,42,0.00,,,0.00,meteohub,2013-02-23 14:46:00,
2013-02-23 08:51:00,37.4,15.8,29.45,SW,224,0.0,4.0,41,0.00,,,0.00,meteohub,2013-02-23 14:51:00,
2013-02-23 08:56:00,37.8,15.6,29.45,NE,45,3.0,4.0,40,0.00,,,0.00,meteohub,2013-02-23 14:56:00,
2013-02-23 09:01:00,38.1,16.0,29.45,NE,38,4.0,4.0,40,0.00,,,0.00,meteohub,2013-02-23 15:01:00,
2013-02-23 09:06:00,38.7,16.3,29.45,East,95,0.0,4.0,40,0.00,,,0.00,meteohub,2013-02-23 15:06:00,
2013-02-23 09:11:00,38.8,16.5,29.45,SSE,160,0.0,4.0,40,0.00,,,0.00,meteohub,2013-02-23 15:11:00,
2013-02-23 09:16:00,39.4,16.5,29.45,NNE,28,0.0,4.0,39,0.00,,,0.00,meteohub,2013-02-23 15:16:00,
2013-02-23 09:21:00,39.7,16.9,29.45,NE,55,0.0,4.0,39,0.00,,,0.00,meteohub,2013-02-23 15:21:00,
2013-02-23 09:26:00,39.9,16.9,29.45,NNW,343,0.0,4.0,39,0.00,,,0.00,meteohub,2013-02-23 15:26:00,
2013-02-23 09:31:00,39.9,16.9,29.45,NW,311,2.0,4.0,39,0.00,,,0.00,meteohub,2013-02-23 15:31:00,
2013-02-23 09:37:00,40.3,17.2,29.45,ENE,67,0.0,4.0,39,0.00,,,0.00,meteohub,2013-02-23 15:37:00,
2013-02-23 09:42:00,40.5,17.4,29.45,NNE,23,3.0,4.0,39,0.00,,,0.00,meteohub,2013-02-23 15:42:00,
2013-02-23 09:47:00,40.8,17.2,29.45,NW,308,0.0,4.0,38,0.00,,,0.00,meteohub,2013-02-23 15:47:00,
2013-02-23 09:52:00,40.6,17.1,29.45,North,357,4.0,4.0,38,0.00,,,0.00,meteohub,2013-02-23 15:52:00,
2013-02-23 09:57:00,40.5,16.9,29.45,NW,322,3.0,4.0,38,0.00,,,0.00,meteohub,2013-02-23 15:57:00,
2013-02-23 10:02:00,40.5,17.4,29.45,NE,34,4.0,5.0,39,0.00,,,0.00,meteohub,2013-02-23 16:02:00,
2013-02-23 10:07:00,40.6,17.6,29.45,NE,41,5.0,5.0,39,0.00,,,0.00,meteohub,2013-02-23 16:07:00,
2013-02-23 10:12:00,40.8,17.8,29.45,NW,304,2.0,5.0,39,0.00,,,0.00,meteohub,2013-02-23 16:12:00,
2013-02-23 10:17:00,41.2,17.4,29.45,ENE,75,3.0,6.0,38,0.00,,,0.00,meteohub,2013-02-23 16:17:00,
2013-02-23 10:22:00,41.5,18.5,29.45,WSW,253,0.0,6.0,39,0.00,,,0.00,meteohub,2013-02-23 16:22:00,
2013-02-23 10:27:00,42.4,19.2,29.45,NW,316,2.0,6.0,39,0.00,,,0.00,meteohub,2013-02-23 16:27:00,
2013-02-23 10:32:00,42.8,18.9,29.45,NNE,29,4.0,5.0,38,0.00,,,0.00,meteohub,2013-02-23 16:32:00,
2013-02-23 10:37:00,43.0,19.0,29.45,NNW,344,0.0,5.0,38,0.00,,,0.00,meteohub,2013-02-23 16:37:00,
2013-02-23 10:42:00,43.2,18.7,29.45,ENE,75,4.0,5.0,37,0.00,,,0.00,meteohub,2013-02-23 16:42:00,
2013-02-23 10:47:00,43.3,18.1,29.45,ENE,72,3.0,5.0,36,0.00,,,0.00,meteohub,2013-02-23 16:47:00,
2013-02-23 10:52:00,43.9,19.2,29.45,NNE,22,0.0,6.0,37,0.00,,,0.00,meteohub,2013-02-23 16:52:00,
2013-02-23 10:57:00,44.4,19.0,29.45,NE,54,0.0,6.0,36,0.00,,,0.00,meteohub,2013-02-23 16:57:00,
2013-02-23 11:02:00,44.6,18.7,29.45,NW,326,2.0,6.0,35,0.00,,,0.00,meteohub,2013-02-23 17:02:00,
2013-02-23 11:07:00,44.6,18.0,29.45,NNW,343,3.0,5.0,34,0.00,,,0.00,meteohub,2013-02-23 17:07:00,
2013-02-23 11:12:00,44.4,17.8,29.45,NNW,338,3.0,5.0,34,0.00,,,0.00,meteohub,2013-02-23 17:12:00,
2013-02-23 11:17:00,44.4,17.1,29.45,NW,320,0.0,6.0,33,0.00,,,0.00,meteohub,2013-02-23 17:17:00,
2013-02-23 11:22:00,44.6,17.2,29.45,North,349,4.0,6.0,33,0.00,,,0.00,meteohub,2013-02-23 17:22:00,
2013-02-23 11:27:00,44.8,16.7,29.45,NNE,24,4.0,6.0,32,0.00,,,0.00,meteohub,2013-02-23 17:27:00,
2013-02-23 11:32:00,45.3,18.0,29.45,ENE,58,3.0,5.0,33,0.00,,,0.00,meteohub,2013-02-23 17:32:00,
2013-02-23 11:37:00,46.0,17.8,29.45,ENE,59,5.0,5.0,32,0.00,,,0.00,meteohub,2013-02-23 17:37:00,
2013-02-23 11:42:00,46.6,17.6,29.45,NE,34,3.0,5.0,31,0.00,,,0.00,meteohub,2013-02-23 17:42:00,
2013-02-23 11:47:00,46.9,17.8,29.45,ESE,107,4.0,6.0,31,0.00,,,0.00,meteohub,2013-02-23 17:47:00,
2013-02-23 11:52:00,47.3,18.1,29.45,SE,142,0.0,6.0,31,0.00,,,0.00,meteohub,2013-02-23 17:52:00,
2013-02-23 11:57:00,47.7,18.5,29.45,NW,319,0.0,6.0,31,0.00,,,0.00,meteohub,2013-02-23 17:57:00,
2013-02-23 12:02:00,47.7,18.5,29.45,NW,318,3.0,6.0,31,0.00,,,0.00,meteohub,2013-02-23 18:02:00,
2013-02-23 12:07:00,47.5,17.6,29.45,NNW,342,0.0,5.0,30,0.00,,,0.00,meteohub,2013-02-23 18:07:00,
2013-02-23 12:12:00,47.8,18.0,29.45,NW,310,0.0,5.0,30,0.00,,,0.00,meteohub,2013-02-23 18:12:00,
2013-02-23 12:17:00,47.8,18.0,29.42,North,10,0.0,5.0,30,0.00,,,0.00,meteohub,2013-02-23 18:17:00,
2013-02-23 12:22:00,48.0,18.1,29.42,NW,322,2.0,5.0,30,0.00,,,0.00,meteohub,2013-02-23 18:22:00,
2013-02-23 12:27:00,48.2,18.1,29.42,NW,321,4.0,4.0,30,0.00,,,0.00,meteohub,2013-02-23 18:27:00,
2013-02-23 12:32:00,48.7,18.0,29.42,NE,55,3.0,5.0,29,0.00,,,0.00,meteohub,2013-02-23 18:32:00,
2013-02-23 12:37:00,48.6,17.8,29.42,ENE,65,3.0,5.0,29,0.00,,,0.00,meteohub,2013-02-23 18:37:00,
2013-02-23 12:42:00,48.4,17.6,29.42,SE,144,3.0,5.0,29,0.00,,,0.00,meteohub,2013-02-23 18:42:00,
2013-02-23 12:47:00,48.6,17.8,29.42,North,9,0.0,5.0,29,0.00,,,0.00,meteohub,2013-02-23 18:47:00,
2013-02-23 12:52:00,48.7,18.0,29.42,East,91,2.0,5.0,29,0.00,,,0.00,meteohub,2013-02-23 18:52:00,
2013-02-23 12:57:00,48.7,18.0,29.39,NE,51,2.0,5.0,29,0.00,,,0.00,meteohub,2013-02-23 18:57:00,
2013-02-23 13:02:00,48.9,18.0,29.39,SSE,151,0.0,5.0,29,0.00,,,0.00,meteohub,2013-02-23 19:02:00,
2013-02-23 13:07:00,48.9,18.0,29.39,NNE,17,6.0,6.0,29,0.00,,,0.00,meteohub,2013-02-23 19:07:00,
2013-02-23 13:13:00,48.7,18.0,29.36,NE,48,4.0,6.0,29,0.00,,,0.00,meteohub,2013-02-23 19:13:00,
2013-02-23 13:18:00,48.9,18.0,29.36,North,0,2.0,6.0,29,0.00,,,0.00,meteohub,2013-02-23 19:18:00,
2013-02-23 13:23:00,49.5,18.5,29.36,North,349,3.0,6.0,29,0.00,,,0.00,meteohub,2013-02-23 19:23:00,
2013-02-23 13:28:00,49.8,18.9,29.36,NW,312,3.0,5.0,29,0.00,,,0.00,meteohub,2013-02-23 19:28:00,
2013-02-23 13:33:00,49.8,18.9,29.36,ENE,64,3.0,5.0,29,0.00,,,0.00,meteohub,2013-02-23 19:33:00,
2013-02-23 13:38:00,49.8,18.0,29.36,South,180,0.0,7.0,28,0.00,,,0.00,meteohub,2013-02-23 19:38:00,
2013-02-23 13:43:00,50.2,18.3,29.36,NNE,16,4.0,7.0,28,0.00,,,0.00,meteohub,2013-02-23 19:43:00,
2013-02-23 13:48:00,50.4,18.5,29.36,East,79,3.0,4.0,28,0.00,,,0.00,meteohub,2013-02-23 19:48:00,
2013-02-23 13:53:00,50.5,18.7,29.36,SE,141,0.0,5.0,28,0.00,,,0.00,meteohub,2013-02-23 19:53:00,
2013-02-23 13:58:00,51.1,19.0,29.36,ENE,72,3.0,5.0,28,0.00,,,0.00,meteohub,2013-02-23 19:58:00,
2013-02-23 14:03:00,51.6,19.6,29.36,North,353,0.0,5.0,28,0.00,,,0.00,meteohub,2013-02-23 20:03:00,
2013-02-23 14:08:00,52.2,19.2,29.36,East,100,4.0,4.0,27,0.00,,,0.00,meteohub,2013-02-23 20:08:00,
2013-02-23 14:13:00,52.3,19.4,29.36,ENE,74,0.0,4.0,27,0.00,,,0.00,meteohub,2013-02-23 20:13:00,
2013-02-23 14:18:00,52.3,19.4,29.36,NW,315,0.0,4.0,27,0.00,,,0.00,meteohub,2013-02-23 20:18:00,
2013-02-23 14:23:00,52.5,19.4,29.36,SE,146,3.0,4.0,27,0.00,,,0.00,meteohub,2013-02-23 20:23:00,
2013-02-23 14:28:00,52.9,19.8,29.34,East,81,4.0,4.0,27,0.00,,,0.00,meteohub,2013-02-23 20:28:00,
2013-02-23 14:33:00,52.7,19.6,29.34,SE,124,0.0,4.0,27,0.00,,,0.00,meteohub,2013-02-23 20:33:00,
2013-02-23 14:38:00,52.3,19.4,29.34,North,7,0.0,4.0,27,0.00,,,0.00,meteohub,2013-02-23 20:38:00,
2013-02-23 14:43:00,52.0,19.0,29.34,NNE,31,4.0,4.0,27,0.00,,,0.00,meteohub,2013-02-23 20:43:00,
2013-02-23 14:49:00,52.0,19.0,29.34,NNW,342,0.0,4.0,27,0.00,,,0.00,meteohub,2013-02-23 20:49:00,
2013-02-23 14:54:00,51.8,18.9,29.34,SSE,167,0.0,4.0,27,0.00,,,0.00,meteohub,2013-02-23 20:54:00,
2013-02-23 14:59:00,52.0,19.0,29.34,West,262,2.0,4.0,27,0.00,,,0.00,meteohub,2013-02-23 20:59:00,
2013-02-23 15:04:00,52.2,19.2,29.34,SW,226,3.0,4.0,27,0.00,,,0.00,meteohub,2013-02-23 21:04:00,
2013-02-23 15:09:00,52.0,19.0,29.34,SW,226,0.0,4.0,27,0.00,,,0.00,meteohub,2013-02-23 21:09:00,
2013-02-23 15:14:00,52.0,19.0,29.34,WSW,253,3.0,4.0,27,0.00,,,0.00,meteohub,2013-02-23 21:14:00,
2013-02-23 15:19:00,52.3,19.4,29.34,WSW,242,0.0,4.0,27,0.00,,,0.00,meteohub,2013-02-23 21:19:00,
2013-02-23 15:24:00,52.5,19.4,29.34,WSW,242,0.0,3.0,27,0.00,,,0.00,meteohub,2013-02-23 21:24:00,
2013-02-23 15:29:00,52.9,19.8,29.34,West,274,0.0,3.0,27,0.00,,,0.00,meteohub,2013-02-23 21:29:00,
2013-02-23 15:34:00,53.1,19.9,29.34,WSW,240,0.0,3.0,27,0.00,,,0.00,meteohub,2013-02-23 21:34:00,
2013-02-23 15:39:00,53.1,19.9,29.34,SW,230,0.0,4.0,27,0.00,,,0.00,meteohub,2013-02-23 21:39:00,
2013-02-23 15:44:00,53.2,20.1,29.34,NNE,24,0.0,4.0,27,0.00,,,0.00,meteohub,2013-02-23 21:44:00,
2013-02-23 15:49:00,53.1,19.9,29.34,ENE,59,2.0,4.0,27,0.00,,,0.00,meteohub,2013-02-23 21:49:00,
2013-02-23 15:55:00,53.1,19.9,29.34,ENE,61,0.0,4.0,27,0.00,,,0.00,meteohub,2013-02-23 21:55:00,
2013-02-23 16:00:00,53.2,20.1,29.34,ENE,61,0.0,4.0,27,0.00,,,0.00,meteohub,2013-02-23 22:00:00,
2013-02-23 16:05:00,53.2,20.1,29.34,North,357,0.0,4.0,27,0.00,,,0.00,meteohub,2013-02-23 22:05:00,
2013-02-23 16:10:00,53.2,20.1,29.34,North,1,0.0,3.0,27,0.00,,,0.00,meteohub,2013-02-23 22:10:00,
2013-02-23 16:15:00,53.1,19.9,29.31,North,1,0.0,3.0,27,0.00,,,0.00,meteohub,2013-02-23 22:15:00,
2013-02-23 16:20:00,52.9,19.8,29.31,East,82,0.0,0.0,27,0.00,,,0.00,meteohub,2013-02-23 22:20:00,
2013-02-23 16:25:00,52.9,19.8,29.31,NE,48,0.0,0.0,27,0.00,,,0.00,meteohub,2013-02-23 22:25:00,
2013-02-23 16:30:00,53.1,19.9,29.31,NNE,25,3.0,4.0,27,0.00,,,0.00,meteohub,2013-02-23 22:30:00,
2013-02-23 16:35:00,53.1,19.9,29.31,ENE,74,0.0,4.0,27,0.00,,,0.00,meteohub,2013-02-23 22:35:00,
2013-02-23 16:40:00,53.6,19.6,29.31,ENE,74,0.0,3.0,26,0.00,,,0.00,meteohub,2013-02-23 22:40:00,
2013-02-23 16:45:00,53.6,19.6,29.31,WSW,257,0.0,3.0,26,0.00,,,0.00,meteohub,2013-02-23 22:45:00,
2013-02-23 16:50:00,53.8,19.8,29.31,WSW,257,0.0,3.0,26,0.00,,,0.00,meteohub,2013-02-23 22:50:00,
2013-02-23 16:55:00,54.0,19.8,29.31,SW,219,0.0,3.0,26,0.00,,,0.00,meteohub,2013-02-23 22:55:00,
2013-02-23 17:01:00,54.0,19.8,29.31,SW,219,0.0,3.0,26,0.00,,,0.00,meteohub,2013-02-23 23:01:00,
2013-02-23 17:06:00,53.8,19.8,29.31,SW,219,0.0,0.0,26,0.00,,,0.00,meteohub,2013-02-23 23:06:00,
2013-02-23 17:11:00,53.4,20.3,29.31,SW,219,0.0,0.0,27,0.00,,,0.00,meteohub,2013-02-23 23:11:00,
2013-02-23 17:16:00,53.2,20.1,29.31,SW,219,0.0,0.0,27,0.00,,,0.00,meteohub,2013-02-23 23:16:00,
2013-02-23 17:21:00,53.2,20.1,29.31,SW,219,0.0,0.0,27,0.00,,,0.00,meteohub,2013-02-23 23:21:00,
2013-02-23 17:26:00,53.2,20.1,29.31,SSE,162,0.0,3.0,27,0.00,,,0.00,meteohub,2013-02-23 23:26:00,
2013-02-23 17:31:00,53.2,20.1,29.31,East,93,0.0,4.0,27,0.00,,,0.00,meteohub,2013-02-23 23:31:00,
2013-02-23 17:36:00,53.1,19.9,29.31,East,93,0.0,4.0,27,0.00,,,0.00,meteohub,2013-02-23 23:36:00,
2013-02-23 17:41:00,53.1,19.9,29.31,NE,43,0.0,4.0,27,0.00,,,0.00,meteohub,2013-02-23 23:41:00,
2013-02-23 17:46:00,53.1,19.9,29.31,ENE,61,0.0,4.0,27,0.00,,,0.00,meteohub,2013-02-23 23:46:00,
2013-02-23 17:51:00,53.1,19.9,29.31,ENE,61,0.0,4.0,27,0.00,,,0.00,meteohub,2013-02-23 23:51:00,
2013-02-23 17:56:00,52.9,19.8,29.31,East,83,0.0,4.0,27,0.00,,,0.00,meteohub,2013-02-23 23:56:00,
2013-02-23 18:01:00,52.5,19.4,29.28,ENE,71,0.0,3.0,27,0.00,,,0.00,meteohub,2013-02-24 00:01:00,
2013-02-23 18:07:00,52.3,19.4,29.28,East,85,0.0,3.0,27,0.00,,,0.00,meteohub,2013-02-24 00:07:00,
2013-02-23 18:12:00,52.0,19.0,29.28,East,79,0.0,0.0,27,0.00,,,0.00,meteohub,2013-02-24 00:12:00,
2013-02-23 18:17:00,51.6,18.7,29.31,East,79,0.0,0.0,27,0.00,,,0.00,meteohub,2013-02-24 00:17:00,
2013-02-23 18:22:00,51.3,18.3,29.31,East,79,0.0,0.0,27,0.00,,,0.00,meteohub,2013-02-24 00:22:00,
2013-02-23 18:27:00,50.9,18.1,29.31,East,79,0.0,0.0,27,0.00,,,0.00,meteohub,2013-02-24 00:27:00,
2013-02-23 18:32:00,50.5,17.8,29.31,East,79,0.0,0.0,27,0.00,,,0.00,meteohub,2013-02-24 00:32:00,
2013-02-23 18:37:00,50.2,17.4,29.31,East,79,0.0,0.0,27,0.00,,,0.00,meteohub,2013-02-24 00:37:00,
2013-02-23 18:42:00,49.8,18.0,29.31,East,79,0.0,0.0,28,0.00,,,0.00,meteohub,2013-02-24 00:42:00,
2013-02-23 18:47:00,49.5,17.8,29.31,East,79,0.0,0.0,28,0.00,,,0.00,meteohub,2013-02-24 00:47:00,
2013-02-23 18:52:00,49.1,17.4,29.31,East,79,0.0,0.0,28,0.00,,,0.00,meteohub,2013-02-24 00:52:00,
2013-02-23 18:57:00,48.7,18.0,29.31,East,79,0.0,0.0,29,0.00,,,0.00,meteohub,2013-02-24 00:57:00,
2013-02-23 19:02:00,48.2,17.4,29.31,East,79,0.0,0.0,29,0.00,,,0.00,meteohub,2013-02-24 01:02:00,
2013-02-23 19:07:00,47.7,16.9,29.31,East,79,0.0,0.0,29,0.00,,,0.00,meteohub,2013-02-24 01:07:00,
2013-02-23 19:12:00,47.3,17.4,29.31,East,79,0.0,0.0,30,0.00,,,0.00,meteohub,2013-02-24 01:12:00,
2013-02-23 19:17:00,46.9,17.1,29.31,East,79,0.0,0.0,30,0.00,,,0.00,meteohub,2013-02-24 01:17:00,
2013-02-23 19:22:00,46.6,17.6,29.31,East,79,0.0,0.0,31,0.00,,,0.00,meteohub,2013-02-24 01:22:00,
2013-02-23 19:27:00,46.2,18.0,29.31,East,79,0.0,0.0,32,0.00,,,0.00,meteohub,2013-02-24 01:27:00,
2013-02-23 19:32:00,45.9,17.6,29.31,East,79,0.0,0.0,32,0.00,,,0.00,meteohub,2013-02-24 01:32:00,
2013-02-23 19:37:00,45.5,17.4,29.31,East,79,0.0,0.0,32,0.00,,,0.00,meteohub,2013-02-24 01:37:00,
2013-02-23 19:42:00,45.3,18.0,29.31,East,79,0.0,0.0,33,0.00,,,0.00,meteohub,2013-02-24 01:42:00,
2013-02-23 19:47:00,45.1,17.8,29.31,East,79,0.0,0.0,33,0.00,,,0.00,meteohub,2013-02-24 01:47:00,
2013-02-23 19:52:00,45.0,18.3,29.31,East,79,0.0,0.0,34,0.00,,,0.00,meteohub,2013-02-24 01:52:00,
2013-02-23 19:57:00,44.8,18.9,29.31,East,79,0.0,0.0,35,0.00,,,0.00,meteohub,2013-02-24 01:57:00,
2013-02-23 20:02:00,44.8,18.9,29.31,East,79,0.0,0.0,35,0.00,,,0.00,meteohub,2013-02-24 02:02:00,
2013-02-23 20:07:00,44.6,18.7,29.31,East,79,0.0,0.0,35,0.00,,,0.00,meteohub,2013-02-24 02:07:00,
2013-02-23 20:12:00,44.6,18.7,29.31,East,79,0.0,0.0,35,0.00,,,0.00,meteohub,2013-02-24 02:12:00,
2013-02-23 20:17:00,44.6,19.2,29.31,East,79,0.0,0.0,36,0.00,,,0.00,meteohub,2013-02-24 02:17:00,
2013-02-23 20:22:00,44.6,19.2,29.31,East,79,0.0,0.0,36,0.00,,,0.00,meteohub,2013-02-24 02:22:00,
2013-02-23 20:27:00,44.2,19.0,29.31,East,79,0.0,0.0,36,0.00,,,0.00,meteohub,2013-02-24 02:27:00,
2013-02-23 20:32:00,44.1,19.4,29.31,East,79,0.0,0.0,37,0.00,,,0.00,meteohub,2013-02-24 02:32:00,
2013-02-23 20:37:00,43.9,19.2,29.31,East,79,0.0,0.0,37,0.00,,,0.00,meteohub,2013-02-24 02:37:00,
2013-02-23 20:42:00,43.7,19.8,29.31,East,79,0.0,0.0,38,0.00,,,0.00,meteohub,2013-02-24 02:42:00,
2013-02-23 20:47:00,43.5,19.6,29.31,East,79,0.0,0.0,38,0.00,,,0.00,meteohub,2013-02-24 02:47:00,
2013-02-23 20:52:00,43.3,19.4,29.31,East,79,0.0,0.0,38,0.00,,,0.00,meteohub,2013-02-24 02:52:00,
2013-02-23 20:57:00,43.2,19.2,29.31,East,79,0.0,0.0,38,0.00,,,0.00,meteohub,2013-02-24 02:57:00,
2013-02-23 21:02:00,43.0,19.0,29.31,East,79,0.0,0.0,38,0.00,,,0.00,meteohub,2013-02-24 03:02:00,
2013-02-23 21:07:00,42.6,19.4,29.31,East,79,0.0,0.0,39,0.00,,,0.00,meteohub,2013-02-24 03:07:00,
2013-02-23 21:12:00,42.4,19.2,29.31,East,79,0.0,0.0,39,0.00,,,0.00,meteohub,2013-02-24 03:12:00,
2013-02-23 21:17:00,42.3,19.0,29.31,East,79,0.0,0.0,39,0.00,,,0.00,meteohub,2013-02-24 03:17:00,
2013-02-23 21:22:00,42.1,18.9,29.31,East,79,0.0,0.0,39,0.00,,,0.00,meteohub,2013-02-24 03:22:00,
2013-02-23 21:27:00,42.4,19.2,29.31,East,79,0.0,0.0,39,0.00,,,0.00,meteohub,2013-02-24 03:27:00,
2013-02-23 21:32:00,43.3,19.4,29.31,ENE,77,0.0,2.0,38,0.00,,,0.00,meteohub,2013-02-24 03:32:00,
2013-02-23 21:37:00,43.9,19.9,29.31,South,179,0.0,2.0,38,0.00,,,0.00,meteohub,2013-02-24 03:37:00,
2013-02-23 21:42:00,44.4,20.5,29.31,South,179,0.0,2.0,38,0.00,,,0.00,meteohub,2013-02-24 03:42:00,
2013-02-23 21:47:00,44.6,19.9,29.31,South,179,0.0,0.0,37,0.00,,,0.00,meteohub,2013-02-24 03:47:00,
2013-02-23 21:52:00,44.8,20.1,29.31,South,179,0.0,0.0,37,0.00,,,0.00,meteohub,2013-02-24 03:52:00,
2013-02-23 21:57:00,44.8,20.1,29.31,East,101,0.0,0.0,37,0.00,,,0.00,meteohub,2013-02-24 03:57:00,
2013-02-23 22:02:00,44.6,19.9,29.31,East,101,0.0,0.0,37,0.00,,,0.00,meteohub,2013-02-24 04:02:00,
2013-02-23 22:08:00,44.6,19.9,29.31,East,101,0.0,0.0,37,0.00,,,0.00,meteohub,2013-02-24 04:08:00,
2013-02-23 22:13:00,44.4,20.5,29.31,East,101,0.0,0.0,38,0.00,,,0.00,meteohub,2013-02-24 04:13:00,
2013-02-23 22:18:00,44.1,20.1,29.31,East,101,0.0,0.0,38,0.00,,,0.00,meteohub,2013-02-24 04:18:00,
2013-02-23 22:23:00,43.9,19.9,29.31,East,101,0.0,0.0,38,0.00,,,0.00,meteohub,2013-02-24 04:23:00,
2013-02-23 22:28:00,43.5,19.6,29.31,East,101,0.0,0.0,38,0.00,,,0.00,meteohub,2013-02-24 04:28:00,
2013-02-23 22:33:00,43.2,19.2,29.31,East,101,0.0,0.0,38,0.00,,,0.00,meteohub,2013-02-24 04:33:00,
2013-02-23 22:38:00,43.0,19.0,29.31,East,101,0.0,0.0,38,0.00,,,0.00,meteohub,2013-02-24 04:38:00,
2013-02-23 22:43:00,42.6,18.9,29.31,East,101,0.0,0.0,38,0.00,,,0.00,meteohub,2013-02-24 04:43:00,
2013-02-23 22:48:00,42.4,19.2,29.31,East,101,0.0,0.0,39,0.00,,,0.00,meteohub,2013-02-24 04:48:00,
2013-02-23 22:53:00,42.3,19.0,29.31,East,101,0.0,0.0,39,0.00,,,0.00,meteohub,2013-02-24 04:53:00,
2013-02-23 22:58:00,42.1,18.9,29.28,East,101,0.0,0.0,39,0.00,,,0.00,meteohub,2013-02-24 04:58:00,
2013-02-23 23:00:00,42.1,18.9,29.28,East,101,0.0,0.0,39,0.00,,,0.00,meteohub,2013-02-24 05:00:00,
2013-02-23 23:01:00,42.1,18.9,29.28,East,101,0.0,0.0,39,0.00,,,0.00,meteohub,2013-02-24 05:01:00,
2013-02-23 23:02:00,42.1,18.9,29.28,East,101,0.0,0.0,39,0.00,,,0.00,meteohub,2013-02-24 05:02:00,
2013-02-23 23:07:00,41.9,18.7,29.28,East,101,0.0,0.0,39,0.00,,,0.00,meteohub,2013-02-24 05:07:00,
2013-02-23 23:12:00,41.7,18.5,29.28,East,101,0.0,0.0,39,0.00,,,0.00,meteohub,2013-02-24 05:12:00,
2013-02-23 23:17:00,41.4,18.3,29.28,East,101,0.0,0.0,39,0.00,,,0.00,meteohub,2013-02-24 05:17:00,
2013-02-23 23:22:00,41.0,18.0,29.28,East,101,0.0,0.0,39,0.00,,,0.00,meteohub,2013-02-24 05:22:00,
2013-02-23 23:27:00,40.6,18.1,29.28,ESE,102,0.0,0.0,40,0.00,,,0.00,meteohub,2013-02-24 05:27:00,
2013-02-23 23:32:00,40.5,18.0,29.28,East,101,0.0,0.0,40,0.00,,,0.00,meteohub,2013-02-24 05:32:00,
2013-02-23 23:37:00,40.1,17.8,29.28,East,101,0.0,0.0,40,0.00,,,0.00,meteohub,2013-02-24 05:37:00,
2013-02-23 23:42:00,39.9,18.1,29.28,East,101,0.0,0.0,41,0.00,,,0.00,meteohub,2013-02-24 05:42:00,
2013-02-23 23:48:00,39.6,17.8,29.28,East,101,0.0,0.0,41,0.00,,,0.00,meteohub,2013-02-24 05:48:00,
2013-02-23 23:53:00,39.2,17.4,29.28,East,101,0.0,0.0,41,0.00,,,0.00,meteohub,2013-02-24 05:53:00,
2013-02-23 23:58:00,38.8,17.8,29.28,East,101,0.0,0.0,42,0.00,,,0.00,meteohub,2013-02-24 05:58:00,